TimeEST,TemperatureF,Dew PointF,Humidity,Sea Level PressureIn,VisibilityMPH,Wind Direction,Wind SpeedMPH,Gust SpeedMPH,PrecipitationIn,Events,Conditions,WindDirDegrees,DateUTC
12:53 AM,37.0,37.0,100,30.29,10.0,Calm,Calm,-,N/A,,Clear,0,2011-11-08 05:53:00
1:53 AM,35.1,35.1,100,30.28,8.0,Calm,Calm,-,N/A,,Clear,0,2011-11-08 06:53:00
2:53 AM,36.0,35.1,97,30.28,10.0,WSW,3.5,-,N/A,,Clear,250,2011-11-08 07:53:00
3:53 AM,35.1,34.0,96,30.28,10.0,Calm,Calm,-,N/A,,Clear,0,2011-11-08 08:53:00
4:53 AM,33.1,32.0,96,30.28,9.0,Calm,Calm,-,N/A,,Clear,0,2011-11-08 09:53:00
5:53 AM,32.0,32.0,100,30.28,9.0,Calm,Calm,-,N/A,,Clear,0,2011-11-08 10:53:00
6:53 AM,32.0,32.0,100,30.30,7.0,SW,3.5,-,N/A,,Clear,230,2011-11-08 11:53:00
7:53 AM,36.0,36.0,100,30.30,10.0,Calm,Calm,-,N/A,,Clear,0,2011-11-08 12:53:00
8:53 AM,44.1,41.0,89,30.31,10.0,SW,3.5,-,N/A,,Clear,230,2011-11-08 13:53:00
9:53 AM,53.1,43.0,69,30.30,10.0,Calm,Calm,-,N/A,,Clear,0,2011-11-08 14:53:00
10:53 AM,60.1,44.1,55,30.29,10.0,Calm,Calm,-,N/A,,Clear,0,2011-11-08 15:53:00
11:53 AM,63.0,44.1,50,30.26,10.0,NE,3.5,-,N/A,,Clear,40,2011-11-08 16:53:00
12:53 PM,64.9,42.1,43,30.23,10.0,Calm,Calm,-,N/A,,Clear,0,2011-11-08 17:53:00
1:53 PM,66.2,37.4,35,30.22,10.0,Calm,Calm,-,N/A,,Clear,0,2011-11-08 18:53:00
2:53 PM,68.0,39.0,35,30.20,10.0,Calm,Calm,-,N/A,,Clear,0,2011-11-08 19:53:00
3:53 PM,66.9,41.0,39,30.19,10.0,Calm,Calm,-,N/A,,Clear,0,2011-11-08 20:53:00
4:53 PM,64.0,43.0,46,30.19,10.0,SE,3.5,-,N/A,,Clear,130,2011-11-08 21:53:00
5:53 PM,53.1,43.0,69,30.20,10.0,Calm,Calm,-,N/A,,Clear,0,2011-11-08 22:53:00
6:53 PM,51.1,43.0,74,30.21,10.0,Calm,Calm,-,N/A,,Clear,0,2011-11-08 23:53:00
7:53 PM,46.9,42.1,83,30.21,10.0,Calm,Calm,-,N/A,,Clear,0,2011-11-09 00:53:00
8:53 PM,44.1,41.0,89,30.22,10.0,Calm,Calm,-,N/A,,Clear,0,2011-11-09 01:53:00
9:53 PM,41.0,39.0,93,30.21,10.0,Calm,Calm,-,N/A,,Clear,0,2011-11-09 02:53:00
10:53 PM,39.0,37.9,96,30.20,10.0,Calm,Calm,-,N/A,,Clear,0,2011-11-09 03:53:00
11:53 PM,39.2,37.4,93,30.21,10.0,Calm,Calm,-,N/A,,Clear,0,2011-11-09 04:53:00